Main page
METAR-TAF:

METAR-TAF

Airports :

Vlissingen, Netherlands

latitude: 51-27N, longitude: 3-36E, elevation: 10 m

Current weather observation

The report was made 42 minutes ago, at 03:55 UTC
Wind 14 kt from the South
Temperature 15°C
Humidity 100%
Pressure 1016 hPa
Visibility: 5000 m
mist

METAR: EHFS 190355Z AUTO 19014KT 5000 BR BKN004/// OVC005/// 15/15 Q1016

Time: 06:37 (04:37 UTC)


TAF: missing

Weather observations and forecasts of more than 4000 airports (METAR and TAF reports).

The available stations are represented by yellow and red dots on the map.

Hover mouse over dot to see the name of the station.

Then click to see weather observations and forecasts.

To change the map : click on the green buttons with a black cross to zoom in, on the green button with a dash to zoom out, or on the green arrows for adjacent maps.


METAR-TAF: